Terug naar catalogus

BREEZE-M DEB

ActiefHEO
NORAD 38647·DEBRIS·🇷🇺 Russia

Gelanceerd Mar 14, 2008 vanaf Baikonur Cosmodrome

Loading…

Volgende Passages (komende 24 uur)

TLE

VersSource: Space-Track

Epoch: Sep 11, 2026, 21:13 UTC

1 38647U 08011CW  26254.88461986 -.00000061  00000-0  00000+0 0  9994
2 38647  49.1363  60.0262 6337085 179.3805 182.3451  3.05388644177377

Volg BREEZE-M DEB in realtime met AllMySat

Download on the App Store